NOAA 16 DEB, 41510

Orbit data source: Space-Track

NOAA 16 DEB, 41510 is space debris in SSO originally from a launch on Thu, 21 Sep 2000 UTC launched from the Air Force Western Test Range (AFWTR). Debris objects in space refer to the collection of defunct objects orbiting the Earth. Examples of debris include non-operational satellites, rocket bodies, and fragments generated from explosions, collisions, or faulty payload assembly.

Loading next visibility...
Identifier
41510, 2000-055MJ
Orbit
SSO
Country
Flag of USUS
Related business
Manufacturer
Unknown
Mission
Spacecraft
Bus & Motor
Unknown
Mass
Unknown
Launch date (UTC)
2000-09-21 (25 years ago)
Launch vehicle
Unknown
Launch site
Air Force Western Test Range (AFWTR)
Object type
Payload
Rocket body
Debris
Shape & HBR
Unknown shape, 0.1 m
Radar Cross Section
Small (<0.1 m²)

Expand to show TLE details & history
Last TLE update: 2 days ago

TLE from 2 days ago
0 NOAA 16 DEB
1 41510U 00055MJ  25350.18984170  .00003262  00000-0  13213-2 0  9999
2 41510  98.7611  78.0720 0025473 184.8392 175.2546 14.28255006503253
Epoch: 2025-12-16T04:33Z
TLE epoch observation values (Epoch: 2025-12-16T04:33:22.322Z)
Latitude
-0.00008°
Longitude
-75.34861°
Altitude
818.714 km
Speed
7.434 km/s
True Right ascension
05h 12m 17s
True Declination
0° 00' 00"
Sunlit
Object was in full shadow at epoch
Visualization orbit readout
Latitude
Unknown
Longitude
Unknown
Altitude
Unknown
Speed
Unknown
Apparent Right ascension
Unknown
Apparent Declination
Unknown
Sunlit
N/A
Visualization observer readout
Local Sidereal Time
19:12:41
Azimuth
Unknown
Elevation
Unknown
Doppler factor
Unknown
Orbital elements
Apogee altitude
812.991 km
Perigee altitude
776.448 km
Semi-major axis
7,172.857 km
Eccentricity
0.00255
Inclination
98.7611°
RAAN
78.072°
Arg. of periapsis
184.8392°
True anomaly
175.27867°
Mean anomaly
175.2546°
Eccentric anomaly
175.26664°
Mean motion
3.57277 °/min
Orbital period
100.76 mins
BSTAR
0.0013213
Loading maneuver chart data...
Computing Atmospheric mass density...
Loading historical data...
Loading historical data...
Loading historical data...
Loading historical data...
Loading historical data...
Loading historical data...
Loading historical data...

Documentation

Showing up to 5 results
|